SCP
0 0 0 0 0 0 0 0 0 0 0 0 0 0 0 0 -0 -0 0 -0 0 0
0 0 0 0 0 0 0 0 0 0 0 0 0 -0 -0 0 -0 0 -0 -0 -0 0
0 0 0 0 0 0 0 0 0 0 0 0 0 -0 -0 0 -0 -0 -0 -0 -0 -0
0 0 0 0 0 0 0 0 0 0 0 0 0 -0 -0 -0 -0 -0 -0 -0 -0 -0
0 0 0 0 0 0 0 0 0 0 0 0 0 -0 -0 -0 -0 -0 -0 -0 -0 -0
0 0 0 0 0 0 0 0 0 0 0 0 0 -0 -0 -0 -0 -0 -0 -0 -0 -0
0 0 0 0 0 0 0 0 0 0 0 0 0 0 -0 -0 0 0 0 -0 -0 -0
0 0 0 0 0 0 0 0 0 0 0 0 0 0 -0 0 -0 0 0 -0 -0 -0
0 0 0 0 0 0 0 0 0 0 0 0 0 -0 -0 -0 0 0 0 -0 -0 -0
0 0 0 0 0 0 0 0 0 0 0 0 0 -0 -0 0 0 0 0 -0 -0 -0
0 0 0 0 0 0 0 0 0 0 0 0 0 -0 -0 -0 -0 0 0 0 -0 -0
0 0 0 0 0 0 0 0 0 0 0 0 0 -0 -0 -0 0 0 0 -0 -0 -0
0 0 0 0 0 0 0 0 0 0 0 0 0 -0 -0 -0 0 0 -0 -0 -0 -0
0 0 0 0 0 0 0 0 0 0 0 0 0 0 0 -0 0 -0 -0 -0 -0 -0
Wind_Speed_500mb
35 36 38 42 45 57 59 62 64 53 55 60 55 49 50 51 50 53 52 53 57 51
34 35 37 40 44 53 57 59 60 53 57 60 54 49 48 50 52 56 55 54 58 52
31 32 34 37 42 49 56 58 60 57 59 60 58 48 51 52 53 55 56 56 62 57
30 30 32 36 40 46 55 57 60 57 59 61 62 47 53 55 54 54 57 58 64 60
27 29 32 35 38 41 52 61 67 57 59 63 62 54 55 58 57 55 59 59 65 63
28 29 31 33 35 37 42 55 69 70 62 65 60 60 57 58 55 61 60 56 63 61
29 30 31 31 33 38 38 44 55 68 65 77 61 61 60 62 59 65 63 58 59 57
26 28 31 33 34 37 38 41 45 49 58 72 61 60 58 63 62 65 67 66 66 60
24 26 30 31 32 35 39 42 45 51 48 63 65 52 52 63 64 65 71 76 76 72
23 26 29 29 32 36 40 43 46 52 48 57 69 49 47 55 62 66 70 79 79 79
22 25 27 28 33 34 36 41 45 48 54 55 64 58 48 48 52 59 63 70 78 80
22 24 26 29 32 33 34 37 38 43 48 54 59 57 55 52 54 57 60 65 71 77
21 24 27 29 31 31 32 32 33 37 41 47 52 53 55 54 55 60 60 62 67 75
21 24 26 26 28 28 27 29 31 32 38 43 47 50 51 53 54 58 61 62 67 67
Wind_Direction_500mb
358 6 4 5 0 351 357 358 352 10 17 10 10 11 15 15 10 12 11 12 10 12
1 9 6 7 3 355 357 360 355 17 19 11 9 14 17 17 14 16 14 16 14 15
7 10 9 9 6 358 359 360 0 18 19 11 12 20 23 21 17 16 16 21 14 20
11 15 13 13 10 3 1 2 6 19 17 12 14 27 25 23 19 17 18 26 17 21
17 16 17 14 12 11 1 4 8 18 16 14 19 30 29 23 19 20 22 26 19 20
22 18 20 15 11 15 12 2 6 15 17 15 23 29 30 25 22 27 27 31 24 22
24 15 20 16 16 13 17 15 8 7 17 16 25 31 29 24 28 29 29 36 31 32
28 16 22 19 21 13 18 18 14 14 8 16 27 30 27 26 29 29 31 38 40 41
32 25 24 25 21 20 19 21 18 16 23 16 25 32 30 27 30 28 33 34 39 39
38 32 28 28 25 28 21 24 21 18 29 15 23 29 38 31 26 28 33 32 38 38
42 36 35 32 31 30 27 24 19 21 20 20 23 25 38 50 34 27 32 33 37 38
46 40 35 38 34 31 30 30 25 17 20 19 21 27 37 47 46 36 38 40 39 40
52 41 38 35 42 32 30 36 28 17 24 16 20 24 35 39 44 40 39 44 43 43
59 32 41 34 41 35 35 38 31 27 27 28 24 25 30 37 42 40 39 42 44 44
Wind_Speed_850mb
35 36 38 42 45 57 59 62 64 53 55 60 55 49 50 51 50 53 52 53 57 51
34 35 37 40 44 53 57 59 60 53 57 60 54 49 48 50 52 56 55 54 58 52
31 32 34 37 42 49 56 58 60 57 59 60 58 48 51 52 53 55 56 56 62 57
30 30 32 36 40 46 55 57 60 57 59 61 62 47 53 55 54 54 57 58 64 60
27 29 32 35 38 41 52 61 67 57 59 63 62 54 55 58 57 55 59 59 65 63
28 29 31 33 35 37 42 55 69 70 62 65 60 60 57 58 55 61 60 56 63 61
29 30 31 31 33 38 38 44 55 68 65 77 61 61 60 62 59 65 63 58 59 57
26 28 31 33 34 37 38 41 45 49 58 72 61 60 58 63 62 65 67 66 66 60
24 26 30 31 32 35 39 42 45 51 48 63 65 52 52 63 64 65 71 76 76 72
23 26 29 29 32 36 40 43 46 52 48 57 69 49 47 55 62 66 70 79 79 79
22 25 27 28 33 34 36 41 45 48 54 55 64 58 48 48 52 59 63 70 78 80
22 24 26 29 32 33 34 37 38 43 48 54 59 57 55 52 54 57 60 65 71 77
21 24 27 29 31 31 32 32 33 37 41 47 52 53 55 54 55 60 60 62 67 75
21 24 26 26 28 28 27 29 31 32 38 43 47 50 51 53 54 58 61 62 67 67
Wind_Direction_850mb
358 6 4 5 0 351 357 358 352 10 17 10 10 11 15 15 10 12 11 12 10 12
1 9 6 7 3 355 357 360 355 17 19 11 9 14 17 17 14 16 14 16 14 15
7 10 9 9 6 358 359 360 0 18 19 11 12 20 23 21 17 16 16 21 14 20
11 15 13 13 10 3 1 2 6 19 17 12 14 27 25 23 19 17 18 26 17 21
17 16 17 14 12 11 1 4 8 18 16 14 19 30 29 23 19 20 22 26 19 20
22 18 20 15 11 15 12 2 6 15 17 15 23 29 30 25 22 27 27 31 24 22
24 15 20 16 16 13 17 15 8 7 17 16 25 31 29 24 28 29 29 36 31 32
28 16 22 19 21 13 18 18 14 14 8 16 27 30 27 26 29 29 31 38 40 41
32 25 24 25 21 20 19 21 18 16 23 16 25 32 30 27 30 28 33 34 39 39
38 32 28 28 25 28 21 24 21 18 29 15 23 29 38 31 26 28 33 32 38 38
42 36 35 32 31 30 27 24 19 21 20 20 23 25 38 50 34 27 32 33 37 38
46 40 35 38 34 31 30 30 25 17 20 19 21 27 37 47 46 36 38 40 39 40
52 41 38 35 42 32 30 36 28 17 24 16 20 24 35 39 44 40 39 44 43 43
59 32 41 34 41 35 35 38 31 27 27 28 24 25 30 37 42 40 39 42 44 44